DELTA 1 DEB, 10713

Orbit data source: Space-Track

DELTA 1 DEB, 10713 is space debris in SSO originally from a launch on Thu, 29 Jul 1976 UTC launched from the Air Force Western Test Range (AFWTR). Debris objects in space refer to the collection of defunct objects orbiting the Earth. Examples of debris include non-operational satellites, rocket bodies, and fragments generated from explosions, collisions, or faulty payload assembly.

Loading next visibility...
Identifier
10713, 1976-077AJ
Orbit
SSO
Last TLE update
23 hours ago
Origin
Manufacturer
Unknown
Mission
Spacecraft
Bus & Motor
Unknown
Mass
Unknown
Launch date (UTC)
1976-07-29 (49 years ago)
Launch vehicle
Unknown
Launch site
Air Force Western Test Range (AFWTR)
Object type
Payload
Rocket body
Debris
Shape & HBR
Unknown
Radar Cross Section
Small (<0.1 m²)

Expand to show TLE details & history

TLE from 23 hours ago
0 DELTA 1 DEB
1 10713U 76077AJ  25128.42392903  .00002657  00000-0  79238-2 0  9990
2 10713 101.5398 286.8851 0126973  37.5432 347.1288 13.06109235274704
Epoch: 2025-05-08T10:10Z
Definitive object data (Epoch: 2025-05-08T10:10:27.468Z)
Latitude
23.84459°
Longitude
-97.375°
Altitude
1,146.67 km
Speed
7.327 km/s
True Right ascension
18h 46m 56s
True Declination
23° 43' 27"
Sunlit
Object was in daylight at TLE epoch
Visualization TLE readout
Latitude
-17.99742°
Longitude
85.01479°
Altitude
1,337.168 km
Speed
7.145 km/s
Apparent Right ascension
06h 16m 34s
Apparent Declination
-28° 18' 36"
Sunlit
Object is in daylight
Visualization observer readout
Local Sidereal Time
17:16:22
Azimuth
308.494° NW
Elevation
-73.017°
Doppler factor
1
Orbital elements
Apogee altitude
1,332.383 km
Perigee altitude
1,139.032 km
Semi-major axis
7,613.845 km
Eccentricity
0.0126973
Inclination
101.5398°
RAAN
286.8851°
Arg. of periapsis
37.5432°
True anomaly
346.79959°
Mean anomaly
347.1288°
Eccentric anomaly
346.96471°
Mean motion
3.26691 °/min
BSTAR
0.0079238
Orbital period
110.2 mins
Loading maneuver chart data...
Loading SW <> Apogee altitude chart data...
Loading historical data...
Loading historical data...
Loading historical data...
Loading historical data...
Loading historical data...
Loading historical data...
Loading historical data...

DELTA 1 DEB Visibility forecast

Observer location: undefined°, undefined°

Span
Click to sort rows by Start time (UTC) header in descending order
Start Az.
Max El. time (UTC)
Max El. Az.
Max El.
End time (UTC)
End Az.
13 mins2025-05-09 10:03:05.954Z152.569° SSE2025-05-09 10:09:05.954Z101.829° ESE43.411°2025-05-09 10:16:05.954Z346.913° N
6 mins2025-05-09 11:56:05.954Z241.088° WSW2025-05-09 11:58:05.954Z261.46° W17.251°2025-05-09 12:02:05.954Z301.118° NW
13 mins2025-05-09 23:25:05.954Z20.785° NNE2025-05-09 23:31:05.954Z88.793° E44.334°2025-05-09 23:38:05.954Z192.849° SSW
9 mins2025-05-10 01:15:05.954Z341.515° N2025-05-10 01:19:05.954Z301.998° NW20.706°2025-05-10 01:24:05.954Z258.512° W
|